Regional Weather Roundup
Issued by NWS Midland/Odessa, TX

Home | Current Version | Previous Version | Text Only | Print | Product List | Glossary On
Versions: 1 2 3 4 5 6 7 8 9 10 11 12 13 14 15 16 17 18 19 20 21 22 23 24 25 26 27 28 29 30 31 32 33 34 35 36 37 38 39 40 41 42 43 44 45 46 47 48 49 50
000
ASUS44 KMAF 290510
RWRMAF
MIDLAND AREA WEATHER ROUNDUP
NATIONAL WEATHER SERVICE MIDLAND TX
1200 AM CDT FRI MAY 29 2015

...IN SOUTHWEST TEXAS AND SOUTHEAST NEW MEXICO...

CITY           SKY/WX    TMP DP  RH WIND       PRES   REMARKS
ALPINE         PTCLDY    56  53  89 SW5       30.08F
ANDREWS        FAIR      60  57  89 E8        29.98F
ARTESIA        PTCLDY    66  54  63 SE15      29.99R
BIG SPRING     CLOUDY    64  59  86 NE10      29.98S
CARLSBAD       PTCLDY    65  56  72 E8        29.98R
DRYDEN         NOT AVBL
FORT STOCKTON  CLOUDY    63  55  75 SE8       29.97R
GUAD PASS      CLEAR     60  52  74 NE24      30.09R
HOBBS          CLOUDY    61  55  82 E14G23    30.00F
MARFA          CLEAR     55  48  76 CALM      30.07R
MIDLAND AIRPK  CLOUDY    63  58  83 N17G30    30.01R
MIDLAND INTL   CLOUDY    63  58  83 N20       30.01R
ODESSA         CLOUDY    62  57  83 N8G25     29.99R
PECOS          MOCLDY    63  59  85 CALM      29.95R
PRESIDIO       FAIR      82  54  37 NE14G20   29.90R
SEMINOLE       CLOUDY    61  55  78 CALM      30.00F
SNYDER         CLOUDY    61  59  94 SE13      29.98R
WINK           CLOUDY    64  56  75 NE10      29.97R
$$
...OTHER STATIONS IN TEXAS...

CITY           SKY/WX    TMP DP  RH WIND       PRES   REMARKS
ABILENE        TSTM      63  63 100 S8        29.99F
AMARILLO       CLOUDY    62  51  67 E9        30.03R
AUSTIN         MOCLDY    76  73  91 S7        29.98R
BROWNSVILLE    MOCLDY    80  76  87 SE12      29.97S
CORPUS CHRISTI CLOUDY    80  74  81 SE13      29.97R
DALLAS FTW     TSTM      65  65 100 N13G23    29.96F FOG
DEL RIO        HVY RAIN  64  62  93 NE14G25   30.00R FOG
EL PASO        CLEAR     84  15   7 NW3       29.96R
HOUSTON INT    MOCLDY    78  74  87 S6        29.99R
LUBBOCK        CLOUDY    64  53  67 S9        29.90F
SAN ANGELO     RAIN      62  60  93 SE14      30.01F FOG
SAN ANTONIO    CLOUDY    78  72  81 S14       30.01R
WACO           CLOUDY    77  72  84 S17G25    29.93F
WICHITA FALLS  NOT AVBL
$$
...OTHER LOCATIONS IN NEW MEXICO...

CITY           SKY/WX    TMP DP  RH WIND       PRES   REMARKS
ALAMAGORDO     CLEAR     72  18  13 S10       29.96R
ALBUQUERQUE    CLEAR     72  31  22 N7        30.07R
CANNON AFB     CLOUDY    59  55  86 SW5       29.98R
CLOVIS         CLOUDY    59  54  82 NE3       29.99R
HOLLOMAN AFB   PTCLDY    73  19  13 S8        29.93R
ROSWELL        MOCLDY    64  55  72 S7        29.97R
RUIDOSO        PTCLDY    61  28  29 S6        30.17R
SANTA FE       CLEAR     60  28  29 N10       30.12R
TRUTH OR CONSE CLEAR     77  15   9 NW13      30.01R
TUCUMCARI      CLOUDY    62  55  77 NE10      30.01R
$$


USA.gov is the U.S. government's official web portal to all federal, state and local government web resources and services.